Regional Weather Roundup
Issued by NWS

Home | Current Version | Previous Version | Text Only | Print | Product List | Glossary Off
Versions: 1 2 3 4 5 6 7 8 9 10 11 12 13 14 15 16 17 18 19 20 21 22 23 24 25 26 27 28 29 30 31 32 33 34 35 36 37 38 39 40 41 42 43 44 45 46 47 48 49 50

239
ASUS43 KIND 270109
RWRIN

WEATHER ROUNDUP FOR INDIANA
NATIONAL WEATHER SERVICE INDIANAPOLIS IN
900 PM EDT THU MAY 26 2016

NOTE: "FAIR" INDICATES FEW OR NO CLOUDS BELOW 12,000 FEET WITH NO
SIGNIFICANT WEATHER AND/OR OBSTRUCTIONS TO VISIBILITY.

* - STATION DOES NOT REPORT WEATHER SUCH AS PRECIPITATION OR FOG.

+ - STATION NOT QUALITY CONTROLLED BY THE NATIONAL WEATHER SERVICE.
    USE DATA WITH CAUTION...ESPECIALLY DEWPOINT AND RELATIVE
    HUMIDITY OBSERVATIONS.

INZ001>003-010>013-019-020-270200-
NORTHWEST INDIANA

CITY           SKY/WX    TMP DP  RH WIND       PRES   REMARKS
GARY /AIRPORT/ MOCLDY    82  70  65 VRB3      29.87R
KNOX *+        CLOUDY    77  54  44 S8        29.90R
LA PORTE +     PTCLDY    79  63  57 S7        29.91R
MICHIGAN CITY+ PTCLDY    75  61  60 SE3       29.89R
MONTICELLO +   CLOUDY    75  62  63 S7        29.92R
VALPARAISO     PTCLDY    77  64  64 S7        29.90R

$$

LMZ046-743>745-270200-
SOUTHERN LAKE MICHIGAN

STATION/POSITION TIME  TEMP    WIND        PRES    WAVE
                       AIR SEA DIR/SP/G            HT
                 (UTC) (F)     (DEG/KT/KT) (MB)    (FT)
BURNS HARBOR     0000   82     200/  8/ 11 1011.2R
MICHIGAN CITY    0000   76     200/  3/  3   N/A
5NW MICH CITY    0100   65 62   80/  6/  6   N/A     1

$$

INZ004-005-014>016-021>024-270200-
NORTH CENTRAL INDIANA

CITY           SKY/WX    TMP DP  RH WIND       PRES   REMARKS
ELKHART        CLEAR     77  66  69 SW5       29.91R
GOSHEN         PTCLDY    75  59  57 SW5       29.91R
LOGANSPORT +   PTCLDY    73  61  64 SW8       29.94R
PERU/GRISSOM   PTCLDY    74  63  68 S13       29.93R
ROCHESTER +    CLOUDY    79  63  57 SW5       29.92R
SOUTH BEND     PTCLDY    77  60  55 SW8       29.91R
WARSAW +       PTCLDY    77  59  53 W3        29.92R

$$

INZ006>009-017-018-025>027-270200-
NORTHEAST INDIANA

CITY           SKY/WX    TMP DP  RH WIND       PRES   REMARKS
AUBURN +       CLEAR     77  57  50 SW3       29.91R
FORT WAYNE     MOCLDY    76  62  62 SW12      29.93R
HUNTINGTON +   PTCLDY   N/A N/A N/A SW8       29.93R

$$

INZ028-029-035-036-043>045-051>053-270200-
WEST CENTRAL INDIANA

CITY           SKY/WX    TMP DP  RH WIND       PRES   REMARKS
LAFAYETTE      PTCLDY    73  62  68 S5        29.92R
TERRE HAUTE    CLOUDY    71  63  75 S13       29.94R

$$

INZ030>032-037>040-046>048-054>057-064-065-270200-
CENTRAL INDIANA

CITY           SKY/WX    TMP DP  RH WIND       PRES   REMARKS
CP ATTERBURY + CLOUDY    70  63  78 S3        29.98R
COLUMBUS       PTCLDY    70  66  88 S13       29.98R
FISHERS *+     MOCLDY    70  64  83 S8        29.97
FRANKFORT +      N/A     73  54  51 SW6       29.96R
GREENWOOD *+   CLOUDY    70  63  78 S8        29.98R
INDIANAPOLIS   MOCLDY    72  64  76 S12       29.95R
-EAGLE CREEK   PTCLDY    73  64  73 VRB7      29.96R
KOKOMO *+      CLOUDY    73  61  64 SW12      29.94R
MARION +       MOCLDY    74  60  62 SW15      29.95R
SHELBYVILLE    MOCLDY    72  64  76 S9        29.97R
ZIONSVILLE +   MOCLDY    71  63  77 S10       29.97R

$$

INZ033-034-041-042-049-050-058-059-270200-
EAST CENTRAL INDIANA

CITY           SKY/WX    TMP DP  RH WIND       PRES   REMARKS
MUNCIE         PTCLDY    76  62  62 SW7       29.95R

$$

INZ060-061-067>069-081>083-085>088-270200-
SOUTHWEST INDIANA

CITY           SKY/WX    TMP DP  RH WIND       PRES   REMARKS
EVANSVILLE     MOCLDY    68  63  84 SE5       29.97R
HUNTINGBURG *+ CLOUDY    70  63  78 SE5       29.98R
WASHINGTON +   MOCLDY    69  66  90 S12       29.95S

$$

INZ062-063-066-070>080-084-089>092-270200-
SOUTH CENTRAL AND SOUTHEAST INDIANA

CITY           SKY/WX    TMP DP  RH WIND       PRES   REMARKS
BEDFORD +      CLOUDY    70  68  94 S7        29.98
BLOOMINGTON    CLOUDY    70  63  78 S6        29.97R
MADISON *+     CLOUDY    66  63  88 S5        30.01R
NORTH VERNON + CLOUDY    68  68 100 S3        30.00
SEYMOUR +      CLOUDY    70  64  83 CALM      29.98R

$$





USA.gov is the U.S. government's official web portal to all federal, state and local government web resources and services.